Weather History for Valparaiso, IN

Change the Weather History Date:

Thursday, January 5, 2012

  Actual Average Record
Temperature  
Mean Temperature 36 °F 24 °F  
Max Temperature 48 °F 31 °F 55 °F (1998)
Min Temperature 25 °F 17 °F -20 °F (1999)
Degree Days  
Heating Degree Days 28 41  
Month to date heating degree days 205  
Since 1 July heating degree days 2607  
Cooling Degree Days 0 0  
Month to date cooling degree days 0  
Year to date cooling degree days 0  
Moisture  
Dew Point 27 °F    
Average Humidity 71    
Maximum Humidity 81    
Minimum Humidity 52    
Precipitation  
Precipitation 0.00 in 0.06 in 0.23 in (2014)
Sea Level Pressure  
Sea Level Pressure 29.93 in    
Wind  
Wind Speed 8 mph (SW)    
Max Wind Speed 16 mph    
Max Gust Speed -    
Visibility 10 miles    
Events      
T = Trace of Precipitation, MM = Missing Value Source: NWS Daily Summary

Daily Weather History Graph

Daily Weather History Graph

Search for Another Location

Airport:

Trip Planner

Search our weather history database for the weather conditions in past years. The results will help you decide how hot, cold, wet, or windy it might be!

Date:

Astronomy

Jan. 05, 2012 Rise Set
Actual Time 7:14 AM CST 4:32 PM CST
Civil Twilight 6:43 AM CST 5:03 PM CST
Nautical Twilight 6:08 AM CST 5:38 PM CST
Astronomical Twilight 5:35 AM CST 6:11 PM CST
Moon 1:35 PM CST (1/5) 3:59 AM CST (1/5)
Length of Visible Light 10h 19m
Length of Day
9h 17m
Waxing Gibbous, 88% of the Moon is Illuminated
Jan 5
Waxing Gibbous
Jan 9
Full
Jan 16
Last Quarter
Jan 23
New
Jan 30
First Quarter

Hourly Weather History & Observations

Time (CST) Temp. Windchill Dew Point Humidity Pressure Visibility Wind Dir Wind Speed Gust Speed Precip Events Conditions
12:53 AM 28.9 °F 20.4 °F 21.9 °F 75% 30.05 in 10.0 mi WNW 9.2 mph - N/A   Clear
1:53 AM 30.0 °F 21.1 °F 21.9 °F 72% 30.06 in 10.0 mi WNW 10.4 mph - N/A   Clear
2:53 AM 27.0 °F 21.6 °F 19.9 °F 75% 30.06 in 10.0 mi West 4.6 mph - N/A   Clear
3:53 AM 25.0 °F 19.3 °F 19.9 °F 81% 30.05 in 10.0 mi SSW 4.6 mph - N/A   Clear
4:53 AM 25.0 °F 20.7 °F 19.9 °F 81% 30.05 in 10.0 mi SSW 3.5 mph - N/A   Clear
5:53 AM 25.0 °F 18.1 °F 19.9 °F 81% 30.03 in 10.0 mi SSW 5.8 mph - N/A   Clear
6:53 AM 25.0 °F 17.1 °F 19.9 °F 81% 30.01 in 10.0 mi South 6.9 mph - N/A   Clear
7:53 AM 26.1 °F 19.4 °F 21.0 °F 81% 30.01 in 10.0 mi South 5.8 mph - N/A   Clear
8:53 AM 32.0 °F 24.2 °F 25.0 °F 75% 30.00 in 10.0 mi SSW 9.2 mph - N/A   Clear
9:53 AM 35.1 °F 27.4 °F 27.0 °F 72% 29.99 in 10.0 mi SSW 10.4 mph - N/A   Clear
11:53 AM 42.1 °F 35.2 °F 28.9 °F 60% 29.92 in 10.0 mi SW 12.7 mph - N/A   Clear
12:53 PM 44.1 °F 37.1 °F 30.0 °F 58% 29.90 in 10.0 mi SW 15.0 mph - N/A   Clear
1:53 PM 46.0 °F 39.3 °F 30.9 °F 56% 29.87 in 10.0 mi SW 16.1 mph - N/A   Clear
2:53 PM 48.0 °F - 30.9 °F 52% 29.86 in 10.0 mi SW 12.7 mph - N/A   Clear
3:53 PM 46.0 °F 41.4 °F 32.0 °F 58% 29.86 in 10.0 mi SW 9.2 mph - N/A   Clear
4:53 PM 43.0 °F 38.2 °F 30.9 °F 62% 29.84 in 10.0 mi SSW 8.1 mph - N/A   Clear
5:53 PM 41.0 °F 36.4 °F 30.9 °F 67% 29.83 in 10.0 mi SSW 6.9 mph - N/A   Clear
7:53 PM 39.0 °F 34.0 °F 32.0 °F 76% 29.82 in 10.0 mi SSW 6.9 mph - N/A   Clear
8:53 PM 39.0 °F 33.4 °F 32.0 °F 76% 29.81 in 10.0 mi SSW 8.1 mph - N/A   Clear
9:53 PM 41.0 °F 33.9 °F 32.0 °F 70% 29.79 in 10.0 mi SW 12.7 mph - N/A   Clear
10:53 PM 39.9 °F 35.1 °F 32.0 °F 73% 29.79 in 10.0 mi SW 6.9 mph - N/A   Clear
11:53 PM 37.9 °F 34.4 °F 30.9 °F 76% 29.77 in 10.0 mi South 4.6 mph - N/A   Clear